This demonstration page uses our WeatherBlox Daily Observations layout. Learn more.

Left ArrowRight Arrow

39.08367, -84.50855

Hourly Observations for August 17, 2022

Temp ( °F °C ) Dew Point ( °F °C ) Humidity (%) Winds ( mph kmh ) Pressure ( in mb ) Visibility ( mi km ) Precip ( " mm )
12:53 am 00:53 Clear 64 17.8 63 17.2 96 96 Calm 30.03 1017 8 13 0.00 0.00
1:53 am 01:53 Clear 62 16.7 62 16.7 100 100 Calm 30.02 1017 9 14 0.00 0.00
2:31 am 02:31 Clear with Mist and Fog 63 17.2 62 16.7 97 97 Calm 30.02 1017 2 3 0.00 0.00
2:40 am 02:40 Clear with Mist and Fog 63 17.2 62 16.7 97 97 Calm 30.01 1016 6 10 0.00 0.00
2:53 am 02:53 Clear with Mist and Fog 63 17.2 62 16.7 97 97 Calm 30.01 1016 6 10 0.00 0.00
3:21 am 03:21 Mostly Clear with Fog 61 16.1 61 16.1 100 100 Calm 30.02 1016 0 0 0.00 0.00
3:39 am 03:39 Mostly Clear with Mist and Fog 61 16.1 61 16.1 100 100 Calm 30.02 1016 3 4 0.00 0.00
3:48 am 03:48 Mostly Clear with Fog 61 16 61 16 100 100 Calm 30.02 1016 1 1 0.00 0.00
3:55 am 03:55 Clear with Mist and Fog 61 16.1 61 16.1 100 100 Calm 30.02 1016 3 5 0.00 0.00
4:12 am 04:12 Clear with Mist and Fog 61 16.1 61 16.1 100 100 Calm 30.02 1016 2 3 0.00 0.00
4:33 am 04:33 Clear with Mist and Fog 61 16.1 61 16.1 100 100 Calm 30.03 1017 3 5 0.00 0.00
4:47 am 04:47 Clear with Mist and Fog 61 16 61 16 100 100 Calm 30.02 1016 2 2 0.00 0.00
4:53 am 04:53 Clear with Mist and Fog 61 16.1 61 16.1 100 100 Calm 30.01 1016 1 1 0.00 0.00
5:41 am 05:41 Clear with Mist and Fog 60 15.6 60 15.6 100 100 Calm 30.02 1017 2 3 0.00 0.00
5:48 am 05:48 Clear with Mist and Fog 61 16 61 16 100 100 Calm 30.02 1016 3 5 0.00 0.00
5:51 am 05:51 Clear with Mist and Fog 61 16 61 16 100 100 Calm 30.02 1016 2 3 0.00 0.00
5:53 am 05:53 Clear with Mist and Fog 60 15.6 60 15.6 100 100 Calm 30.01 1016 1 1 0.00 0.00
6:14 am 06:14 Clear with Mist and Fog 60 15.6 60 15.6 100 100 Calm 30.02 1017 2 3 0.00 0.00
6:21 am 06:21 Clear with Mist and Fog 60 15.6 59 15 96 96 Calm 30.03 1017 4 6 0.00 0.00
6:44 am 06:44 Clear with Mist and Fog 60 15.6 60 15.6 100 100 Calm 30.04 1017 2 3 0.00 0.00
6:53 am 06:53 Mostly Sunny 61 16.1 60 15.6 97 97 Calm 30.03 1017 10 16 0.00 0.00
7:53 am 07:53 Sunny 62 16.7 62 16.7 100 100 Calm 30.05 1018 10 16 0.00 0.00
8:53 am 08:53 Cloudy 68 20 64 17.8 87 87 NE 5 7 30.06 1018 8 13 0.00 0.00
9:53 am 09:53 Sunny 71 21.7 64 17.8 79 79 VRB 3 6 30.06 1018 10 16 0.00 0.00
10:53 am 10:53 Partly Cloudy 74 23.3 64 17.8 71 71 ENE 5 7 30.06 1018 10 16 0.00 0.00
11:53 am 11:53 Partly Cloudy 78 25.6 64 17.8 62 62 NE 8 13 30.05 1018 10 16 0.00 0.00
12:53 pm 12:53 Partly Cloudy 78 25.6 63 17.2 60 60 NE 6 9 30.05 1018 10 16 0.00 0.00
1:53 pm 13:53 Mostly Cloudy 78 25.6 62 16.7 58 58 E 8 13 30.04 1017 10 16 0.00 0.00
2:53 pm 14:53 Mostly Cloudy 82 27.8 61 16.1 49 49 E 7 11 30.03 1017 10 16 0.00 0.00
3:53 pm 15:53 Mostly Cloudy 82 27.8 60 15.6 47 47 VRB 5 7 30.01 1016 10 16 0.00 0.00
4:53 pm 16:53 Partly Cloudy 82 27.8 60 15.6 47 47 NNE 8 13 29.99 1016 10 16 0.00 0.00
5:53 pm 17:53 Partly Cloudy 82 27.8 58 14.4 44 44 E 5 7 29.98 1015 10 16 0.00 0.00
6:53 pm 18:53 Mostly Cloudy 78 25.6 61 16.1 56 56 NE 6 9 29.98 1015 10 16 0.00 0.00
7:53 pm 19:53 Sunny 76 24.4 62 16.7 62 62 ENE 3 6 29.98 1015 10 16 0.00 0.00
8:53 pm 20:53 Mostly Cloudy 71 21.7 64 17.8 79 79 NE 6 9 30.00 1016 10 16 0.00 0.00
9:53 pm 21:53 Cloudy 73 22.8 61 16.1 66 66 NNE 5 7 30.01 1016 10 16 0.00 0.00
10:53 pm 22:53 Partly Cloudy 72 22.2 61 16.1 68 68 NE 5 7 30.02 1017 10 16 0.00 0.00
11:53 pm 23:53 Clear 66 18.9 62 16.7 87 87 Calm 30.02 1017 10 16 0.00 0.00

Powered by AerisWeather